Location: St Paul
(44.9440°N, 93.0930°W)
Time: 18:10:57
(UTC-05:00)

Envisat - Visible Passes

Search period start: 21 October 2017 00:00
Search period end: 31 October 2017 00:00
Orbit: 764 x 766 km, 98.2° (Epoch: 21 October)

Date Brightness Start Highest point End Pass type
(mag) Time Alt. Az. Time Alt. Az. Time Alt. Az.
21 Oct 3.9 20:01:48 30° NE 20:01:48 30° NE 20:05:45 10° N visible
21 Oct 4.8 21:42:01 28° WNW 21:42:01 28° WNW 21:44:58 10° NNW visible
22 Oct 4.5 19:24:49 16° ENE 19:25:04 16° ENE 19:28:00 10° NNE visible
22 Oct 3.8 21:05:02 45° NNW 21:05:02 45° NNW 21:08:33 10° NNW visible
23 Oct 3.6 20:28:03 40° NNE 20:28:03 40° NNE 20:31:42 10° N visible
23 Oct 5.5 22:08:16 17° WNW 22:08:16 17° WNW 22:09:58 10° NW visible
24 Oct 4.2 19:51:03 24° NE 19:51:03 24° NE 19:54:26 10° N visible
24 Oct 4.7 21:31:16 29° NW 21:31:16 29° NW 21:34:00 10° NNW visible
25 Oct 4.8 19:14:04 13° ENE 19:14:06 13° ENE 19:16:17 10° NNE visible
25 Oct 3.9 20:54:17 39° N 20:54:17 39° N 20:57:27 10° NNW visible
26 Oct 3.9 20:17:18 32° NNE 20:17:18 32° NNE 20:20:29 10° N visible
26 Oct 5.5 21:57:30 18° NW 21:57:30 18° NW 21:59:11 10° NW visible
27 Oct 4.4 19:40:18 20° NE 19:40:18 20° NE 19:43:03 10° NNE visible
27 Oct 4.7 21:20:31 28° NNW 21:20:31 28° NNW 21:22:59 10° NNW visible
28 Oct 4.9 19:03:18 10° NE 19:03:18 10° NE 19:03:51 10° NE visible
28 Oct 4.1 20:43:31 33° N 20:43:31 33° N 20:46:18 10° N visible
28 Oct 6.0 22:23:44 10° NW 22:23:44 10° NW 22:23:48 10° NW visible
29 Oct 4.2 20:06:32 25° NNE 20:06:32 25° NNE 20:09:13 10° N visible
29 Oct 5.4 21:46:44 18° NW 21:46:44 18° NW 21:48:17 10° NNW visible
30 Oct 4.7 19:29:31 16° NE 19:29:31 16° NE 19:31:34 10° NNE visible
30 Oct 4.7 21:09:44 26° NNW 21:09:44 26° NNW 21:11:55 10° NNW visible
